Regional Weather Roundup
Issued by NWS

Home | Current Version | Previous Version | Text Only | Print | Product List | Glossary On
Versions: 1 2 3 4 5 6 7 8 9 10 11 12 13 14 15 16 17 18 19 20 21 22 23 24 25 26 27 28 29 30 31 32 33 34 35 36 37 38 39 40 41 42 43 44 45 46 47 48 49 50
000
ASUS43 KLSX 241407
RWRMO

WEATHER SUMMARY FOR MISSOURI
NATIONAL WEATHER SERVICE SPRINGFIELD MO
800 AM CST FRI NOV 24 2017

NOTE: "FAIR" INDICATES FEW OR NO CLOUDS BELOW 12,000 FEET WITH NO
       SIGNIFICANT WEATHER AND/OR OBSTRUCTIONS TO VISIBILITY.
       CURRENT SKY AND/OR WEATHER CONDITIONS ARE NOT AVAILABLE FOR
       CHILLICOTHE AND FARMINGTON.

MOZ001>031-035>038-043-044-053-054-241500-
...NORTHERN AND WESTERN MISSOURI...

CITY           SKY/WX    TMP DP  RH WIND       PRES   REMARKS
KANSAS CTY INT PTCLDY    53  35  50 S20G26    29.68F
KANSAS C DTWN  CLEAR     56  35  45 S15G24    29.70F
LEE`S SUMMIT   CLEAR     50  34  54 S17       29.73F
ST JOSEPH      CLEAR     52  35  52 SW21      29.65F
CHILLICOTHE      N/A     50  34  54 S15G22    29.69F
KIRKSVILLE     CLEAR     51  34  52 SW14      29.71F

$$
MOZ066>068-077>081-088>096-101>105-241500-
...SOUTHWEST MISSOURI...

CITY           SKY/WX    TMP DP  RH WIND       PRES   REMARKS
SPRINGFIELD    PTCLDY    44  33  65 S9        29.86F
JOPLIN         PTCLDY    51  32  48 S15       29.85F
BRANSON        PTCLDY    54  28  37 CALM      29.91S

$$
MOZ032>034-039>042-045>050-055>058-069>072-241500-
...CENTRAL MISSOURI...

CITY           SKY/WX    TMP DP  RH WIND       PRES   REMARKS
COLUMBIA       CLEAR     45  33  63 S7        29.81F
JEFFERSON CITY PTCLDY    44  32  62 E5        29.83F
ROLLA          CLEAR     47  31  53 S13       29.86S
SEDALIA        CLEAR     51  34  52 S16       29.80S
WHITEMAN AFB   CLEAR     46  33  59 S13       29.74S
WARRENSBURG    CLEAR     45  32  61 S10       29.77F
OSAGE BEACH    CLOUDY    42  33  70 SE6       29.84F

$$
MOZ051-052-059>065-241500-
...EAST CENTRAL MISSOURI...

CITY           SKY/WX    TMP DP  RH WIND       PRES   REMARKS
ST LOUIS INTL  PTSUNNY   43  32  65 S7        29.86S
SPIRIT OF STL  MOSUNNY   35  33  92 CALM      29.84S
ST CHARLES     PTCLDY    36  31  82 E5        29.84F

$$
MOZ072>076-082>087-097>100-106>115-241500-
...SOUTH CENTRAL AND SOUTHEAST MISSOURI...

CITY           SKY/WX    TMP DP  RH WIND       PRES   REMARKS
CAPE GIRARDEAU PTSUNNY   35  31  85 SE3       29.95S
FARMINGTON     MOSUNNY   39  30  70 SE6       29.89S
POPLAR BLUFF   MOSUNNY   37  32  82 S3        29.94F
WEST PLAINS    CLOUDY    43  31  62 S3        29.92S

$$


USA.gov is the U.S. government's official web portal to all federal, state and local government web resources and services.